When you browse on this site, cookies collect data to enhance your experience and personalize the content and advertising you see.
Visit our Privacy Policy to learn more. By continuing to use the site, you agree to this use of cookies and data.
  • In Schweiz
  • Länderverzeichnis
  • Für 7 Tage
  • Wassertemperatur
  • Wetterkarte
  • Widgets
  • user-avatar
    Anmelden

    Stündliche Wetter Bern

    Heute, 6 April, Montag

    Zeit Temperatur Niederschläge Wind Luftdruck Luftfeuchtigkeit
    00:00 +8°C° 0 mm 1 m/S 718 mmHg 67%
    01:00 +7°C° 0 mm 1 m/S 718 mmHg 67%
    02:00 +7°C° 0 mm 1 m/S 718 mmHg 66%
    03:00 +7°C° 0 mm 1 m/S 719 mmHg 65%
    04:00 +7°C° 0 mm 1 m/S 719 mmHg 65%
    05:00 +7°C° 0 mm 1 m/S 719 mmHg 65%
    06:00 +8°C° 0 mm 1 m/S 720 mmHg 66%
    07:00 +10°C° 0 mm 1 m/S 720 mmHg 60%
    08:00 +13°C° 0 mm 1 m/S 720 mmHg 54%
    09:00 +15°C° 0 mm 1 m/S 720 mmHg 48%
    10:00 +18°C° 0 mm 1 m/S 720 mmHg 46%
    11:00 +19°C° 0 mm 1 m/S 720 mmHg 45%
    12:00 +20°C° 0 mm 1 m/S 720 mmHg 43%
    13:00 +20°C° 0 mm 1 m/S 720 mmHg 44%
    14:00 +20°C° 0 mm 1 m/S 720 mmHg 45%
    15:00 +20°C° 0 mm 1 m/S 720 mmHg 46%
    16:00 +18°C° 0 mm 1 m/S 720 mmHg 56%
    17:00 +14°C° 0 mm 1 m/S 720 mmHg 66%
    18:00 +11°C° 0 mm 0 m/S 720 mmHg 76%
    19:00 +10°C° 0 mm 0 m/S 721 mmHg 78%
    20:00 +11°C° 0 mm 1 m/S 722 mmHg 80%
    21:00 +10°C° 0 mm 1 m/S 722 mmHg 81%
    22:00 +9°C° 0 mm 1 m/S 722 mmHg 81%
    23:00 +9°C° 0 mm 1 m/S 722 mmHg 81%

    Morgen, 7 April, Dienstag

    Zeit Temperatur Niederschläge Wind Luftdruck Luftfeuchtigkeit
    00:00 +9°C° 0 mm 1 m/S 722 mmHg 81%
    01:00 +8°C° 0 mm 1 m/S 722 mmHg 82%
    02:00 +7°C° 0 mm 0 m/S 723 mmHg 82%
    03:00 +7°C° 0 mm 0 m/S 723 mmHg 82%
    04:00 +7°C° 0 mm 0 m/S 723 mmHg 82%
    05:00 +7°C° 0 mm 0 m/S 723 mmHg 81%
    06:00 +8°C° 0 mm 0 m/S 723 mmHg 80%
    07:00 +11°C° 0 mm 1 m/S 723 mmHg 74%
    08:00 +13°C° 0 mm 1 m/S 723 mmHg 68%
    09:00 +16°C° 0 mm 1 m/S 723 mmHg 61%
    10:00 +17°C° 0 mm 2 m/S 723 mmHg 58%
    11:00 +18°C° 0 mm 2 m/S 723 mmHg 54%
    12:00 +19°C° 0 mm 3 m/S 723 mmHg 50%
    13:00 +19°C° 0 mm 3 m/S 722 mmHg 50%
    14:00 +19°C° 0 mm 2 m/S 722 mmHg 51%
    15:00 +19°C° 0 mm 2 m/S 722 mmHg 51%
    16:00 +17°C° 0 mm 2 m/S 722 mmHg 60%
    17:00 +15°C° 0 mm 1 m/S 721 mmHg 69%
    18:00 +13°C° 0 mm 1 m/S 721 mmHg 78%
    19:00 +12°C° 0 mm 1 m/S 721 mmHg 79%
    20:00 +11°C° 0 mm 1 m/S 722 mmHg 81%
    21:00 +11°C° 0 mm 1 m/S 722 mmHg 82%
    22:00 +10°C° 0 mm 1 m/S 722 mmHg 82%
    23:00 +10°C° 0 mm 1 m/S 722 mmHg 81%

    übermorgen, 8 April, Mittwoch

    Zeit Temperatur Niederschläge Wind Luftdruck Luftfeuchtigkeit
    00:00 +9°C° 0 mm 1 m/S 722 mmHg 81%
    01:00 +9°C° 0 mm 1 m/S 722 mmHg 81%
    02:00 +9°C° 0 mm 1 m/S 722 mmHg 80%
    03:00 +9°C° 0 mm 1 m/S 722 mmHg 80%
    04:00 +9°C° 0 mm 1 m/S 722 mmHg 80%
    05:00 +9°C° 0 mm 1 m/S 722 mmHg 80%
    06:00 +10°C° 0 mm 1 m/S 722 mmHg 80%
    07:00 +12°C° 0 mm 1 m/S 722 mmHg 74%
    08:00 +15°C° 0 mm 1 m/S 722 mmHg 67%
    09:00 +18°C° 0 mm 1 m/S 722 mmHg 61%
    10:00 +19°C° 0 mm 1 m/S 722 mmHg 58%
    11:00 +20°C° 0 mm 1 m/S 721 mmHg 56%
    12:00 +21°C° 0 mm 1 m/S 721 mmHg 53%
    13:00 +21°C° 0.1 mm 1 m/S 721 mmHg 53%
    14:00 +20°C° 0.1 mm 1 m/S 721 mmHg 53%
    15:00 +20°C° 0.1 mm 1 m/S 720 mmHg 54%
    16:00 +18°C° 0.1 mm 1 m/S 720 mmHg 62%
    17:00 +15°C° 0.1 mm 1 m/S 720 mmHg 71%
    18:00 +12°C° 0.1 mm 0 m/S 719 mmHg 79%
    19:00 +12°C° 0 mm 0 m/S 720 mmHg 81%
    20:00 +12°C° 0 mm 1 m/S 720 mmHg 82%
    21:00 +11°C° 0 mm 1 m/S 720 mmHg 84%
    22:00 +11°C° 0 mm 1 m/S 720 mmHg 84%
    23:00 +10°C° 0 mm 1 m/S 720 mmHg 84%

    9 April, Donnerstag

    Zeit Temperatur Niederschläge Wind Luftdruck Luftfeuchtigkeit
    00:00 +10°C° 0 mm 1 m/S 720 mmHg 85%
    01:00 +9°C° 0 mm 1 m/S 720 mmHg 86%
    02:00 +9°C° 0 mm 1 m/S 720 mmHg 86%
    03:00 +8°C° 0 mm 0 m/S 719 mmHg 87%
    04:00 +8°C° 0 mm 0 m/S 719 mmHg 87%
    05:00 +9°C° 0 mm 0 m/S 719 mmHg 86%
    06:00 +9°C° 0 mm 0 m/S 719 mmHg 85%
    07:00 +12°C° 0 mm 0 m/S 720 mmHg 77%
    08:00 +15°C° 0 mm 1 m/S 720 mmHg 69%
    09:00 +19°C° 0 mm 1 m/S 720 mmHg 61%
    10:00 +19°C° 0 mm 1 m/S 720 mmHg 56%
    11:00 +20°C° 0 mm 1 m/S 720 mmHg 51%
    12:00 +20°C° 0 mm 2 m/S 719 mmHg 46%
    13:00 +20°C° 0 mm 2 m/S 719 mmHg 46%
    14:00 +20°C° 0 mm 2 m/S 719 mmHg 47%
    15:00 +20°C° 0 mm 2 m/S 719 mmHg 47%
    16:00 +18°C° 0 mm 2 m/S 718 mmHg 56%
    17:00 +16°C° 0 mm 1 m/S 718 mmHg 65%
    18:00 +14°C° 0 mm 1 m/S 718 mmHg 73%
    19:00 +13°C° 0 mm 1 m/S 718 mmHg 76%
    20:00 +12°C° 0 mm 1 m/S 718 mmHg 78%
    21:00 +11°C° 0 mm 1 m/S 718 mmHg 81%
    22:00 +11°C° 0 mm 1 m/S 718 mmHg 82%
    23:00 +10°C° 0 mm 1 m/S 718 mmHg 83%

    10 April, Freitag

    Zeit Temperatur Niederschläge Wind Luftdruck Luftfeuchtigkeit
    00:00 +10°C° 0 mm 1 m/S 718 mmHg 84%
    01:00 +10°C° 0 mm 1 m/S 718 mmHg 84%
    02:00 +9°C° 0 mm 1 m/S 718 mmHg 85%
    03:00 +9°C° 0 mm 1 m/S 718 mmHg 85%
    04:00 +8°C° 0 mm 0 m/S 718 mmHg 84%
    05:00 +9°C° 0 mm 0 m/S 718 mmHg 83%
    06:00 +9°C° 0 mm 0 m/S 718 mmHg 82%
    07:00 +12°C° 0 mm 0 m/S 718 mmHg 74%
    08:00 +15°C° 0 mm 1 m/S 718 mmHg 67%
    09:00 +19°C° 0 mm 1 m/S 718 mmHg 59%
    10:00 +20°C° 0 mm 1 m/S 718 mmHg 55%
    11:00 +21°C° 0 mm 1 m/S 718 mmHg 51%
    12:00 +22°C° 0 mm 1 m/S 718 mmHg 47%
    13:00 +22°C° 0.1 mm 1 m/S 717 mmHg 48%
    14:00 +22°C° 0.1 mm 1 m/S 717 mmHg 49%
    15:00 +22°C° 0.1 mm 1 m/S 717 mmHg 50%
    16:00 +20°C° 0.1 mm 1 m/S 716 mmHg 60%
    17:00 +16°C° 0.1 mm 1 m/S 716 mmHg 69%
    18:00 +13°C° 0.1 mm 0 m/S 716 mmHg 78%
    19:00 +13°C° 0 mm 0 m/S 716 mmHg 80%
    20:00 +13°C° 0 mm 1 m/S 716 mmHg 81%
    21:00 +12°C° 0 mm 1 m/S 717 mmHg 82%
    22:00 +12°C° 0 mm 1 m/S 717 mmHg 84%
    23:00 +11°C° 0 mm 1 m/S 716 mmHg 85%

    11 April, Samstag

    Zeit Temperatur Niederschläge Wind Luftdruck Luftfeuchtigkeit
    00:00 +11°C° 0 mm 1 m/S 716 mmHg 86%
    01:00 +10°C° 0 mm 1 m/S 716 mmHg 85%
    02:00 +10°C° 0 mm 1 m/S 716 mmHg 85%
    03:00 +10°C° 0 mm 1 m/S 716 mmHg 85%
    04:00 +10°C° 0 mm 1 m/S 716 mmHg 84%
    05:00 +10°C° 0 mm 1 m/S 716 mmHg 83%
    06:00 +11°C° 0 mm 1 m/S 716 mmHg 82%
    07:00 +13°C° 0 mm 1 m/S 716 mmHg 74%
    08:00 +15°C° 0 mm 2 m/S 716 mmHg 67%
    09:00 +16°C° 0 mm 2 m/S 716 mmHg 59%
    10:00 +17°C° 0.1 mm 3 m/S 716 mmHg 56%
    11:00 +18°C° 0.1 mm 4 m/S 716 mmHg 53%
    12:00 +19°C° 0.1 mm 4 m/S 716 mmHg 50%
    13:00 +18°C° 0.1 mm 4 m/S 716 mmHg 56%
    14:00 +17°C° 0.1 mm 4 m/S 716 mmHg 62%
    15:00 +15°C° 0.1 mm 4 m/S 715 mmHg 68%
    16:00 +14°C° 0.1 mm 3 m/S 715 mmHg 74%
    17:00 +13°C° 0.1 mm 3 m/S 715 mmHg 79%
    18:00 +13°C° 0.1 mm 2 m/S 716 mmHg 85%
    19:00 +12°C° 0.2 mm 2 m/S 716 mmHg 87%
    20:00 +12°C° 0.2 mm 2 m/S 716 mmHg 90%
    21:00 +10°C° 0.2 mm 2 m/S 716 mmHg 92%
    22:00 +11°C° 0.3 mm 1 m/S 717 mmHg 93%
    23:00 +11°C° 0.3 mm 1 m/S 717 mmHg 94%
    Mehr zeigen